Time,TemperatureF,DewpointF,PressureIn,WindDirection,WindDirectionDegrees,WindSpeedMPH,WindSpeedGustMPH,Humidity,HourlyPrecipIn,Conditions,Clouds,dailyrainin,SoftwareType,DateUTC
2013-01-02 00:00:00,15.6,12.4,30.17,NW,314,0.0,0.0,87,0.00,CLR,,0.00,WeatherDisplay:10.37,2013-01-02 05:00:00,
2013-01-02 00:01:00,15.6,12.4,30.17,NW,314,0.0,0.0,87,0.00,CLR,,0.00,WeatherDisplay:10.37,2013-01-02 05:01:00,
2013-01-02 00:06:00,15.5,12.3,30.18,NW,314,0.0,0.0,87,0.00,CLR,,0.00,WeatherDisplay:10.37,2013-01-02 05:06:00,
2013-01-02 00:11:00,15.6,12.4,30.17,NW,313,0.0,0.0,87,0.00,CLR,,0.00,WeatherDisplay:10.37,2013-01-02 05:11:00,
2013-01-02 00:16:00,15.7,12.5,30.18,NW,314,0.0,0.0,87,0.00,CLR,,0.00,WeatherDisplay:10.37,2013-01-02 05:16:00,
2013-01-02 00:21:00,15.6,12.4,30.19,NW,314,0.0,0.0,87,0.00,CLR,,0.00,WeatherDisplay:10.37,2013-01-02 05:21:00,
2013-01-02 00:26:00,15.4,12.2,30.19,NW,314,0.0,0.0,87,0.00,CLR,,0.00,WeatherDisplay:10.37,2013-01-02 05:26:00,
2013-01-02 00:31:00,15.2,11.8,30.19,NW,314,0.0,0.0,86,0.00,CLR,,0.00,WeatherDisplay:10.37,2013-01-02 05:31:00,
2013-01-02 00:36:00,14.9,11.5,30.19,NW,314,0.0,0.0,86,0.00,CLR,,0.00,WeatherDisplay:10.37,2013-01-02 05:36:00,
2013-01-02 00:41:00,14.5,11.1,30.19,NW,314,0.0,0.0,86,0.00,CLR,,0.00,WeatherDisplay:10.37,2013-01-02 05:41:00,
2013-01-02 00:46:00,14.3,11.1,30.18,NW,314,0.0,0.0,87,0.00,CLR,,0.00,WeatherDisplay:10.37,2013-01-02 05:46:00,
2013-01-02 00:51:00,14.1,10.9,30.18,NW,314,0.0,0.0,87,0.00,CLR,,0.00,WeatherDisplay:10.37,2013-01-02 05:51:00,
2013-01-02 00:56:00,13.9,10.7,30.18,NW,314,0.0,0.0,87,0.00,CLR,,0.00,WeatherDisplay:10.37,2013-01-02 05:56:00,
2013-01-02 01:01:00,13.8,10.6,30.18,NW,314,0.0,0.0,87,0.00,CLR,,0.00,WeatherDisplay:10.37,2013-01-02 06:01:00,
2013-01-02 01:06:00,13.9,10.7,30.18,NW,314,0.0,0.0,87,0.00,CLR,,0.00,WeatherDisplay:10.37,2013-01-02 06:06:00,
2013-01-02 01:11:00,14.0,11.1,30.18,NW,313,0.0,0.0,88,0.00,CLR,,0.00,WeatherDisplay:10.37,2013-01-02 06:11:00,
2013-01-02 01:16:00,14.0,11.1,30.19,NW,308,0.0,0.0,88,0.00,CLR,,0.00,WeatherDisplay:10.37,2013-01-02 06:16:00,
2013-01-02 01:21:00,13.9,11.0,30.19,NW,308,0.0,0.0,88,0.00,CLR,,0.00,WeatherDisplay:10.37,2013-01-02 06:21:00,
2013-01-02 01:26:00,13.7,10.8,30.19,NW,308,0.0,0.0,88,0.00,CLR,,0.00,WeatherDisplay:10.37,2013-01-02 06:26:00,
2013-01-02 01:31:00,13.6,10.7,30.18,NW,308,0.0,0.0,88,0.00,CLR,,0.00,WeatherDisplay:10.37,2013-01-02 06:31:00,
2013-01-02 01:36:00,13.5,10.6,30.18,NW,308,0.0,0.0,88,0.00,CLR,,0.00,WeatherDisplay:10.37,2013-01-02 06:36:00,
2013-01-02 01:41:00,13.5,10.6,30.18,NW,308,0.0,0.0,88,0.00,CLR,,0.00,WeatherDisplay:10.37,2013-01-02 06:41:00,
2013-01-02 01:46:00,13.4,10.5,30.18,NW,308,0.0,0.0,88,0.00,CLR,,0.00,WeatherDisplay:10.37,2013-01-02 06:46:00,
2013-01-02 01:51:00,13.3,10.4,30.19,NW,308,0.0,0.0,88,0.00,CLR,,0.00,WeatherDisplay:10.37,2013-01-02 06:51:00,
2013-01-02 01:56:00,13.2,10.3,30.19,NW,308,0.0,1.1,88,0.00,CLR,,0.00,WeatherDisplay:10.37,2013-01-02 06:56:00,
2013-01-02 02:01:00,13.1,10.2,30.19,NW,308,0.0,0.0,88,0.00,CLR,,0.00,WeatherDisplay:10.37,2013-01-02 07:01:00,
2013-01-02 02:06:00,12.9,10.0,30.19,NW,308,0.0,0.0,88,0.00,CLR,,0.00,WeatherDisplay:10.37,2013-01-02 07:06:00,
2013-01-02 02:11:00,12.6,9.7,30.19,NW,308,0.0,0.0,88,0.00,CLR,,0.00,WeatherDisplay:10.37,2013-01-02 07:11:00,
2013-01-02 02:16:00,12.5,9.6,30.19,NW,308,0.0,0.0,88,0.00,CLR,,0.00,WeatherDisplay:10.37,2013-01-02 07:16:00,
2013-01-02 02:21:00,12.4,9.5,30.19,NW,308,0.0,0.0,88,0.00,CLR,,0.00,WeatherDisplay:10.37,2013-01-02 07:21:00,
2013-01-02 02:26:00,12.5,9.6,30.20,NW,308,0.0,0.0,88,0.00,CLR,,0.00,WeatherDisplay:10.37,2013-01-02 07:26:00,
2013-01-02 02:31:00,12.4,9.5,30.20,NW,308,0.0,0.0,88,0.00,CLR,,0.00,WeatherDisplay:10.37,2013-01-02 07:31:00,
2013-01-02 02:36:00,12.1,9.2,30.19,NW,308,0.0,0.0,88,0.00,CLR,,0.00,WeatherDisplay:10.37,2013-01-02 07:36:00,
2013-01-02 02:41:00,11.8,8.9,30.19,NW,308,0.0,0.0,88,0.00,CLR,,0.00,WeatherDisplay:10.37,2013-01-02 07:41:00,
2013-01-02 02:46:00,11.8,8.9,30.19,NW,308,0.0,0.0,88,0.00,CLR,,0.00,WeatherDisplay:10.37,2013-01-02 07:46:00,
2013-01-02 02:51:00,12.0,9.1,30.20,NW,308,0.0,0.0,88,0.00,CLR,,0.00,WeatherDisplay:10.37,2013-01-02 07:51:00,
2013-01-02 02:56:00,11.9,9.0,30.20,NW,308,0.0,0.0,88,0.00,CLR,,0.00,WeatherDisplay:10.37,2013-01-02 07:56:00,
2013-01-02 03:01:00,11.6,8.7,30.21,NW,308,0.0,0.0,88,0.00,CLR,,0.00,WeatherDisplay:10.37,2013-01-02 08:01:00,
2013-01-02 03:06:00,11.5,8.6,30.20,NW,308,0.0,0.0,88,0.00,CLR,,0.00,WeatherDisplay:10.37,2013-01-02 08:06:00,
2013-01-02 03:11:00,11.4,8.3,30.21,NW,308,0.0,0.0,87,0.00,CLR,,0.00,WeatherDisplay:10.37,2013-01-02 08:11:00,
2013-01-02 03:16:00,11.3,8.2,30.20,NW,308,0.0,0.0,87,0.00,CLR,,0.00,WeatherDisplay:10.37,2013-01-02 08:16:00,
2013-01-02 03:21:00,11.4,8.3,30.19,NW,308,0.0,0.0,87,0.00,CLR,,0.00,WeatherDisplay:10.37,2013-01-02 08:21:00,
2013-01-02 03:26:00,11.3,8.2,30.20,NW,308,0.0,0.0,87,0.00,CLR,,0.00,WeatherDisplay:10.37,2013-01-02 08:26:00,
2013-01-02 03:31:00,11.1,8.0,30.20,NW,308,0.0,0.0,87,0.00,CLR,,0.00,WeatherDisplay:10.37,2013-01-02 08:31:00,
2013-01-02 03:36:00,11.1,8.0,30.20,NW,308,0.0,0.0,87,0.00,CLR,,0.00,WeatherDisplay:10.37,2013-01-02 08:36:00,
2013-01-02 03:41:00,11.0,7.9,30.21,NW,308,0.0,0.0,87,0.00,CLR,,0.00,WeatherDisplay:10.37,2013-01-02 08:41:00,
2013-01-02 03:46:00,10.8,7.7,30.20,NW,308,0.0,0.0,87,0.00,CLR,,0.00,WeatherDisplay:10.37,2013-01-02 08:46:00,
2013-01-02 03:51:00,10.5,7.4,30.20,NW,308,0.0,0.0,87,0.00,CLR,,0.00,WeatherDisplay:10.37,2013-01-02 08:51:00,
2013-01-02 03:56:00,10.3,7.2,30.21,NW,308,0.0,0.0,87,0.00,CLR,,0.00,WeatherDisplay:10.37,2013-01-02 08:56:00,
2013-01-02 04:01:00,10.3,7.2,30.21,NW,308,0.0,0.0,87,0.00,CLR,,0.00,WeatherDisplay:10.37,2013-01-02 09:01:00,
2013-01-02 04:06:00,10.0,6.6,30.21,NW,308,0.0,0.0,86,0.00,CLR,,0.00,WeatherDisplay:10.37,2013-01-02 09:06:00,
2013-01-02 04:11:00,9.9,6.6,30.21,NW,308,0.0,0.0,86,0.00,CLR,,0.00,WeatherDisplay:10.37,2013-01-02 09:11:00,
2013-01-02 04:16:00,9.7,6.4,30.20,NW,308,0.0,0.0,86,0.00,CLR,,0.00,WeatherDisplay:10.37,2013-01-02 09:16:00,
2013-01-02 04:21:00,9.5,6.2,30.21,NW,308,0.0,0.0,86,0.00,CLR,,0.00,WeatherDisplay:10.37,2013-01-02 09:21:00,
2013-01-02 04:26:00,9.4,6.1,30.21,NW,308,0.0,0.0,86,0.00,CLR,,0.00,WeatherDisplay:10.37,2013-01-02 09:26:00,
2013-01-02 04:31:00,9.2,5.9,30.20,NW,308,0.0,0.0,86,0.00,CLR,,0.00,WeatherDisplay:10.37,2013-01-02 09:31:00,
2013-01-02 04:36:00,9.1,5.8,30.20,NW,308,0.0,0.0,86,0.00,CLR,,0.00,WeatherDisplay:10.37,2013-01-02 09:36:00,
2013-01-02 04:41:00,9.0,5.7,30.21,NW,308,0.0,0.0,86,0.00,CLR,,0.00,WeatherDisplay:10.37,2013-01-02 09:41:00,
2013-01-02 04:46:00,8.9,5.6,30.21,NW,308,0.0,0.0,86,0.00,CLR,,0.00,WeatherDisplay:10.37,2013-01-02 09:46:00,
2013-01-02 04:51:00,8.7,5.4,30.22,NW,308,0.0,0.0,86,0.00,CLR,,0.00,WeatherDisplay:10.37,2013-01-02 09:51:00,
2013-01-02 04:56:00,8.6,5.3,30.22,NW,308,0.0,0.0,86,0.00,CLR,,0.00,WeatherDisplay:10.37,2013-01-02 09:56:00,
2013-01-02 05:01:00,8.5,5.2,30.22,NW,308,0.0,0.0,86,0.00,CLR,,0.00,WeatherDisplay:10.37,2013-01-02 10:01:00,
2013-01-02 05:06:00,8.4,5.1,30.22,NW,308,0.0,0.0,86,0.00,CLR,,0.00,WeatherDisplay:10.37,2013-01-02 10:06:00,
2013-01-02 05:11:00,8.3,5.0,30.22,NW,308,0.0,0.0,86,0.00,CLR,,0.00,WeatherDisplay:10.37,2013-01-02 10:11:00,
2013-01-02 05:16:00,8.2,4.9,30.22,NW,308,0.0,0.0,86,0.00,CLR,,0.00,WeatherDisplay:10.37,2013-01-02 10:16:00,
2013-01-02 05:21:00,8.1,4.8,30.22,NW,308,0.0,0.0,86,0.00,CLR,,0.00,WeatherDisplay:10.37,2013-01-02 10:21:00,
2013-01-02 05:26:00,8.0,4.7,30.22,NW,308,0.0,0.0,86,0.00,CLR,,0.00,WeatherDisplay:10.37,2013-01-02 10:26:00,
2013-01-02 05:31:00,7.9,4.6,30.22,NW,308,0.0,0.0,86,0.00,CLR,,0.00,WeatherDisplay:10.37,2013-01-02 10:31:00,
2013-01-02 05:36:00,7.8,4.5,30.22,NW,307,0.0,0.0,86,0.00,CLR,,0.00,WeatherDisplay:10.37,2013-01-02 10:36:00,
2013-01-02 05:41:00,7.6,4.3,30.22,NW,307,0.0,0.0,86,0.00,CLR,,0.00,WeatherDisplay:10.37,2013-01-02 10:41:00,
2013-01-02 05:46:00,7.4,4.1,30.22,NW,308,0.0,0.0,86,0.00,CLR,,0.00,WeatherDisplay:10.37,2013-01-02 10:46:00,
2013-01-02 05:51:00,7.4,4.1,30.22,NW,308,0.0,0.0,86,0.00,CLR,,0.00,WeatherDisplay:10.37,2013-01-02 10:51:00,
2013-01-02 05:56:00,7.3,4.0,30.22,NW,308,0.0,0.0,86,0.00,CLR,,0.00,WeatherDisplay:10.37,2013-01-02 10:56:00,
2013-01-02 06:01:00,7.2,3.9,30.22,NW,308,0.0,0.0,86,0.00,CLR,,0.00,WeatherDisplay:10.37,2013-01-02 11:01:00,
2013-01-02 06:06:00,7.0,3.7,30.21,NW,308,0.0,0.0,86,0.00,CLR,,0.00,WeatherDisplay:10.37,2013-01-02 11:06:00,
2013-01-02 06:11:00,6.8,3.5,30.21,NW,308,0.0,0.0,86,0.00,CLR,,0.00,WeatherDisplay:10.37,2013-01-02 11:11:00,
2013-01-02 06:16:00,6.6,3.3,30.21,NW,307,0.0,0.0,86,0.00,CLR,,0.00,WeatherDisplay:10.37,2013-01-02 11:16:00,
2013-01-02 06:21:00,6.5,3.2,30.21,NW,307,0.0,0.0,86,0.00,CLR,,0.00,WeatherDisplay:10.37,2013-01-02 11:21:00,
2013-01-02 06:26:00,6.4,3.4,30.21,NW,308,0.0,0.0,87,0.00,CLR,,0.00,WeatherDisplay:10.37,2013-01-02 11:26:00,
2013-01-02 06:31:00,6.4,3.4,30.21,NW,308,0.0,0.0,87,0.00,CLR,,0.00,WeatherDisplay:10.37,2013-01-02 11:31:00,
2013-01-02 06:36:00,6.5,3.5,30.21,NW,308,0.0,0.0,87,0.00,CLR,,0.00,WeatherDisplay:10.37,2013-01-02 11:36:00,
2013-01-02 06:41:00,6.5,3.5,30.21,NW,308,0.0,0.0,87,0.00,CLR,,0.00,WeatherDisplay:10.37,2013-01-02 11:41:00,
2013-01-02 06:46:00,6.5,3.5,30.21,NW,308,0.0,0.0,87,0.00,CLR,,0.00,WeatherDisplay:10.37,2013-01-02 11:46:00,
2013-01-02 06:51:00,6.4,3.4,30.21,NW,308,0.0,0.0,87,0.00,CLR,,0.00,WeatherDisplay:10.37,2013-01-02 11:51:00,
2013-01-02 06:56:00,6.2,3.2,30.21,NW,308,0.0,0.0,87,0.00,CLR,,0.00,WeatherDisplay:10.37,2013-01-02 11:56:00,
2013-01-02 07:01:00,6.1,3.1,30.21,NW,308,0.0,0.0,87,0.00,CLR,,0.00,WeatherDisplay:10.37,2013-01-02 12:01:00,
2013-01-02 07:06:00,6.0,3.0,30.21,NW,307,0.0,0.0,87,0.00,CLR,,0.00,WeatherDisplay:10.37,2013-01-02 12:06:00,
2013-01-02 07:11:00,5.8,2.8,30.21,NW,308,0.0,0.0,87,0.00,CLR,,0.00,WeatherDisplay:10.37,2013-01-02 12:11:00,
2013-01-02 07:16:00,5.8,2.8,30.21,NW,307,0.0,0.0,87,0.00,CLR,,0.00,WeatherDisplay:10.37,2013-01-02 12:16:00,
2013-01-02 07:21:00,5.7,2.7,30.21,NW,308,0.0,0.0,87,0.00,CLR,,0.00,WeatherDisplay:10.37,2013-01-02 12:21:00,
2013-01-02 07:26:00,5.6,2.6,30.21,NW,308,0.0,0.0,87,0.00,CLR,,0.00,WeatherDisplay:10.37,2013-01-02 12:26:00,
2013-01-02 07:31:00,5.6,2.6,30.21,NW,308,0.0,0.0,87,0.00,CLR,,0.00,WeatherDisplay:10.37,2013-01-02 12:31:00,
2013-01-02 07:36:00,5.5,2.5,30.21,NW,308,0.0,0.0,87,0.00,CLR,,0.00,WeatherDisplay:10.37,2013-01-02 12:36:00,
2013-01-02 07:41:00,5.5,2.5,30.21,NW,308,0.0,0.0,87,0.00,CLR,,0.00,WeatherDisplay:10.37,2013-01-02 12:41:00,
2013-01-02 07:46:00,5.4,2.4,30.21,NW,308,0.0,0.0,87,0.00,CLR,,0.00,WeatherDisplay:10.37,2013-01-02 12:46:00,
2013-01-02 07:51:00,5.4,2.4,30.21,NW,308,0.0,0.0,87,0.00,CLR,,0.00,WeatherDisplay:10.37,2013-01-02 12:51:00,
2013-01-02 07:56:00,5.3,2.3,30.22,NW,308,0.0,0.0,87,0.00,CLR,,0.00,WeatherDisplay:10.37,2013-01-02 12:56:00,
2013-01-02 08:01:00,5.3,2.3,30.22,NW,308,0.0,0.0,87,0.00,CLR,,0.00,WeatherDisplay:10.37,2013-01-02 13:01:00,
2013-01-02 08:06:00,5.3,2.3,30.22,NW,307,0.0,0.0,87,0.00,CLR,,0.00,WeatherDisplay:10.37,2013-01-02 13:06:00,
2013-01-02 08:11:00,5.3,2.3,30.23,NW,307,0.0,0.0,87,0.00,CLR,,0.00,WeatherDisplay:10.37,2013-01-02 13:11:00,
2013-01-02 08:16:00,5.3,2.3,30.23,NW,307,0.0,0.0,87,0.00,CLR,,0.00,WeatherDisplay:10.37,2013-01-02 13:16:00,
2013-01-02 08:21:00,5.3,2.3,30.24,NW,306,0.0,0.0,87,0.00,CLR,,0.00,WeatherDisplay:10.37,2013-01-02 13:21:00,
2013-01-02 08:26:00,5.3,2.3,30.24,NW,306,0.0,0.0,87,0.00,CLR,,0.00,WeatherDisplay:10.37,2013-01-02 13:26:00,
2013-01-02 08:31:00,5.4,2.4,30.24,WNW,299,0.3,1.1,87,0.00,CLR,,0.00,WeatherDisplay:10.37,2013-01-02 13:31:00,
2013-01-02 08:36:00,5.4,2.4,30.24,WNW,298,0.1,0.0,87,0.00,CLR,,0.00,WeatherDisplay:10.37,2013-01-02 13:36:00,
2013-01-02 08:41:00,5.5,2.5,30.24,WNW,298,0.0,0.0,87,0.00,CLR,,0.00,WeatherDisplay:10.37,2013-01-02 13:41:00,
2013-01-02 08:46:00,5.5,2.5,30.25,WNW,295,0.0,1.1,87,0.00,CLR,,0.00,WeatherDisplay:10.37,2013-01-02 13:46:00,
2013-01-02 08:51:00,5.6,2.6,30.25,WNW,294,0.0,0.0,87,0.00,CLR,,0.00,WeatherDisplay:10.37,2013-01-02 13:51:00,
2013-01-02 08:56:00,5.6,2.6,30.25,WNW,293,0.0,0.0,87,0.00,CLR,,0.00,WeatherDisplay:10.37,2013-01-02 13:56:00,
2013-01-02 09:01:00,5.7,2.7,30.25,WNW,291,0.1,1.0,87,0.00,CLR,,0.00,WeatherDisplay:10.37,2013-01-02 14:01:00,
2013-01-02 09:06:00,5.9,2.9,30.26,WNW,286,0.0,2.3,87,0.00,CLR,,0.00,WeatherDisplay:10.37,2013-01-02 14:06:00,
2013-01-02 09:11:00,6.1,3.1,30.26,WNW,284,0.0,0.0,87,0.00,CLR,,0.00,WeatherDisplay:10.37,2013-01-02 14:11:00,
2013-01-02 09:16:00,6.4,3.4,30.26,West,279,0.0,1.1,87,0.00,CLR,,0.00,WeatherDisplay:10.37,2013-01-02 14:16:00,
2013-01-02 09:21:00,6.7,3.4,30.26,West,278,0.0,0.0,86,0.00,CLR,,0.00,WeatherDisplay:10.37,2013-01-02 14:21:00,
2013-01-02 09:26:00,7.0,3.7,30.26,West,275,0.0,1.1,86,0.00,CLR,,0.00,WeatherDisplay:10.37,2013-01-02 14:26:00,
2013-01-02 09:31:00,7.4,4.1,30.26,West,273,0.6,3.5,86,0.00,CLR,,0.00,WeatherDisplay:10.37,2013-01-02 14:31:00,
2013-01-02 09:36:00,7.7,4.4,30.27,West,270,0.6,1.0,86,0.00,CLR,,0.00,WeatherDisplay:10.37,2013-01-02 14:36:00,
2013-01-02 09:41:00,8.0,4.7,30.27,West,263,1.7,3.5,86,0.00,CLR,,0.00,WeatherDisplay:10.37,2013-01-02 14:41:00,
2013-01-02 09:46:00,8.4,5.1,30.27,West,260,1.7,4.6,86,0.00,CLR,,0.00,WeatherDisplay:10.37,2013-01-02 14:46:00,
2013-01-02 09:51:00,8.7,5.4,30.27,West,260,0.4,2.3,86,0.00,CLR,,0.00,WeatherDisplay:10.37,2013-01-02 14:51:00,
2013-01-02 09:56:00,9.0,5.7,30.27,West,260,0.4,0.0,86,0.00,CLR,,0.00,WeatherDisplay:10.37,2013-01-02 14:56:00,
2013-01-02 10:01:00,9.1,5.8,30.27,West,260,0.0,0.0,86,0.00,CLR,,0.00,WeatherDisplay:10.37,2013-01-02 15:01:00,
2013-01-02 10:06:00,9.4,6.1,30.27,West,259,0.0,0.0,86,0.00,CLR,,0.00,WeatherDisplay:10.37,2013-01-02 15:06:00,
2013-01-02 10:11:00,9.8,6.5,30.27,West,259,0.0,0.0,86,0.00,CLR,,0.00,WeatherDisplay:10.37,2013-01-02 15:11:00,
2013-01-02 10:16:00,10.4,7.0,30.27,West,259,0.0,0.0,86,0.00,CLR,,0.00,WeatherDisplay:10.37,2013-01-02 15:16:00,
2013-01-02 10:21:00,10.9,7.3,30.27,West,259,0.0,0.0,85,0.00,CLR,,0.00,WeatherDisplay:10.37,2013-01-02 15:21:00,
2013-01-02 10:26:00,11.3,7.7,30.28,West,259,0.0,0.0,85,0.00,CLR,,0.00,WeatherDisplay:10.37,2013-01-02 15:26:00,
2013-01-02 10:31:00,11.6,8.0,30.28,West,259,0.0,0.0,85,0.00,CLR,,0.00,WeatherDisplay:10.37,2013-01-02 15:31:00,
2013-01-02 10:36:00,12.1,8.5,30.28,West,259,0.0,0.0,85,0.00,CLR,,0.00,WeatherDisplay:10.37,2013-01-02 15:36:00,
2013-01-02 10:41:00,12.4,8.5,30.28,West,259,0.0,0.0,84,0.00,CLR,,0.00,WeatherDisplay:10.37,2013-01-02 15:41:00,
2013-01-02 10:46:00,12.7,8.8,30.28,West,259,0.5,0.0,84,0.00,CLR,,0.00,WeatherDisplay:10.37,2013-01-02 15:46:00,
2013-01-02 10:51:00,13.3,9.4,30.28,West,259,0.0,2.3,84,0.00,CLR,,0.00,WeatherDisplay:10.37,2013-01-02 15:51:00,
2013-01-02 10:56:00,13.4,9.2,30.28,WSW,258,0.4,3.5,83,0.00,CLR,,0.00,WeatherDisplay:10.37,2013-01-02 15:56:00,
2013-01-02 11:01:00,13.7,9.5,30.29,WSW,257,0.3,2.3,83,0.00,CLR,,0.00,WeatherDisplay:10.37,2013-01-02 16:01:00,
2013-01-02 11:06:00,13.9,9.4,30.29,WSW,257,0.6,0.0,82,0.00,CLR,,0.00,WeatherDisplay:10.37,2013-01-02 16:06:00,
2013-01-02 11:11:00,14.3,9.8,30.28,WSW,256,0.0,0.0,82,0.00,CLR,,0.00,WeatherDisplay:10.37,2013-01-02 16:11:00,
2013-01-02 11:16:00,14.8,10.0,30.28,WSW,255,0.6,3.5,81,0.00,CLR,,0.00,WeatherDisplay:10.37,2013-01-02 16:16:00,
2013-01-02 11:21:00,15.1,10.3,30.28,WSW,254,0.0,0.0,81,0.00,CLR,,0.00,WeatherDisplay:10.37,2013-01-02 16:21:00,
2013-01-02 11:26:00,15.5,10.4,30.28,WSW,248,0.2,3.5,80,0.00,CLR,,0.00,WeatherDisplay:10.37,2013-01-02 16:26:00,
2013-01-02 11:31:00,15.4,10.3,30.28,WSW,248,0.2,3.5,80,0.00,CLR,,0.00,WeatherDisplay:10.37,2013-01-02 16:31:00,
2013-01-02 11:36:00,15.7,10.6,30.28,WSW,245,1.6,3.5,80,0.00,CLR,,0.00,WeatherDisplay:10.37,2013-01-02 16:36:00,
2013-01-02 11:41:00,16.0,10.9,30.27,WSW,244,0.0,3.5,80,0.00,CLR,,0.00,WeatherDisplay:10.37,2013-01-02 16:41:00,
2013-01-02 11:46:00,16.8,11.7,30.28,WSW,244,1.3,2.0,80,0.00,CLR,,0.00,WeatherDisplay:10.37,2013-01-02 16:46:00,
2013-01-02 11:51:00,16.9,11.5,30.28,WSW,244,0.0,0.0,79,0.00,CLR,,0.00,WeatherDisplay:10.37,2013-01-02 16:51:00,
2013-01-02 11:56:00,17.6,12.2,30.28,WSW,242,0.0,0.0,79,0.00,CLR,,0.00,WeatherDisplay:10.37,2013-01-02 16:56:00,
2013-01-02 12:01:00,17.6,11.9,30.27,WSW,241,0.5,4.0,78,0.00,CLR,,0.00,WeatherDisplay:10.37,2013-01-02 17:01:00,
2013-01-02 12:06:00,17.6,11.9,30.27,WSW,240,0.5,3.5,78,0.00,CLR,,0.00,WeatherDisplay:10.37,2013-01-02 17:06:00,
2013-01-02 12:11:00,17.7,11.7,30.27,WSW,240,0.5,3.5,77,0.00,CLR,,0.00,WeatherDisplay:10.37,2013-01-02 17:11:00,
2013-01-02 12:16:00,17.9,11.9,30.26,WSW,238,0.7,3.5,77,0.00,CLR,,0.00,WeatherDisplay:10.37,2013-01-02 17:16:00,
2013-01-02 12:21:00,18.2,12.2,30.26,WSW,238,1.1,3.5,77,0.00,CLR,,0.00,WeatherDisplay:10.37,2013-01-02 17:21:00,
2013-01-02 12:26:00,18.5,12.5,30.26,SW,236,1.1,3.5,77,0.00,CLR,,0.00,WeatherDisplay:10.37,2013-01-02 17:26:00,
2013-01-02 12:31:00,19.0,13.0,30.26,SW,229,0.4,2.3,77,0.00,CLR,,0.00,WeatherDisplay:10.37,2013-01-02 17:31:00,
2013-01-02 12:36:00,19.3,13.0,30.26,SW,228,0.0,2.3,76,0.00,CLR,,0.00,WeatherDisplay:10.37,2013-01-02 17:36:00,
2013-01-02 12:41:00,19.7,13.7,30.26,SW,227,1.1,3.5,77,0.00,CLR,,0.00,WeatherDisplay:10.37,2013-01-02 17:41:00,
2013-01-02 12:46:00,19.7,13.4,30.25,SW,227,1.2,3.5,76,0.00,CLR,,0.00,WeatherDisplay:10.37,2013-01-02 17:46:00,
2013-01-02 12:51:00,19.7,13.4,30.25,SW,226,1.0,3.5,76,0.00,CLR,,0.00,WeatherDisplay:10.37,2013-01-02 17:51:00,
2013-01-02 12:56:00,19.8,13.2,30.25,SW,223,1.3,2.3,75,0.00,CLR,,0.00,WeatherDisplay:10.37,2013-01-02 17:56:00,
2013-01-02 13:01:00,19.8,13.2,30.25,SW,224,0.0,4.0,75,0.00,CLR,,0.00,WeatherDisplay:10.37,2013-01-02 18:01:00,
2013-01-02 13:06:00,19.9,13.3,30.24,SW,222,2.3,5.8,75,0.00,CLR,,0.00,WeatherDisplay:10.37,2013-01-02 18:06:00,
2013-01-02 13:11:00,19.8,13.2,30.23,SW,222,0.5,3.5,75,0.00,CLR,,0.00,WeatherDisplay:10.37,2013-01-02 18:11:00,
2013-01-02 13:16:00,20.1,13.4,30.24,SW,221,1.3,3.0,75,0.00,CLR,,0.00,WeatherDisplay:10.37,2013-01-02 18:16:00,
2013-01-02 13:21:00,20.4,13.4,30.24,SW,221,1.6,2.3,74,0.00,CLR,,0.00,WeatherDisplay:10.37,2013-01-02 18:21:00,
2013-01-02 13:26:00,20.6,13.6,30.23,SW,221,0.3,2.3,74,0.00,CLR,,0.00,WeatherDisplay:10.37,2013-01-02 18:26:00,
2013-01-02 13:31:00,20.7,13.4,30.23,SW,221,0.8,2.3,73,0.00,CLR,,0.00,WeatherDisplay:10.37,2013-01-02 18:31:00,
2013-01-02 13:36:00,21.1,14.1,30.23,SW,221,0.2,1.0,74,0.00,CLR,,0.00,WeatherDisplay:10.37,2013-01-02 18:36:00,
2013-01-02 13:41:00,21.4,14.1,30.23,SW,221,0.0,0.0,73,0.00,CLR,,0.00,WeatherDisplay:10.37,2013-01-02 18:41:00,
2013-01-02 13:46:00,21.7,14.4,30.23,SW,220,0.7,4.0,73,0.00,CLR,,0.00,WeatherDisplay:10.37,2013-01-02 18:46:00,
2013-01-02 13:51:00,21.9,14.3,30.22,SW,220,2.6,5.8,72,0.00,CLR,,0.00,WeatherDisplay:10.37,2013-01-02 18:51:00,
2013-01-02 13:56:00,21.7,14.1,30.23,SW,215,0.8,3.5,72,0.00,CLR,,0.00,WeatherDisplay:10.37,2013-01-02 18:56:00,
2013-01-02 14:01:00,21.7,14.1,30.23,SSW,213,2.0,4.6,72,0.00,CLR,,0.00,WeatherDisplay:10.37,2013-01-02 19:01:00,
2013-01-02 14:06:00,21.7,14.4,30.23,SW,215,0.5,0.0,73,0.00,CLR,,0.00,WeatherDisplay:10.37,2013-01-02 19:06:00,
2013-01-02 14:11:00,21.7,14.1,30.23,SW,217,1.5,3.0,72,0.00,CLR,,0.00,WeatherDisplay:10.37,2013-01-02 19:11:00,
2013-01-02 14:16:00,21.8,14.2,30.23,SW,217,0.6,3.5,72,0.00,CLR,,0.00,WeatherDisplay:10.37,2013-01-02 19:16:00,
2013-01-02 14:21:00,22.0,14.3,30.23,SW,217,1.3,3.5,72,0.00,CLR,,0.00,WeatherDisplay:10.37,2013-01-02 19:21:00,
2013-01-02 14:26:00,21.9,13.9,30.23,SSW,212,1.1,4.6,71,0.00,CLR,,0.00,WeatherDisplay:10.37,2013-01-02 19:26:00,
2013-01-02 14:31:00,22.0,14.3,30.23,SSW,213,0.0,0.0,72,0.00,CLR,,0.00,WeatherDisplay:10.37,2013-01-02 19:31:00,
2013-01-02 14:36:00,22.0,14.0,30.23,SSW,210,0.6,3.5,71,0.00,CLR,,0.00,WeatherDisplay:10.37,2013-01-02 19:36:00,
2013-01-02 14:41:00,22.0,14.0,30.23,SSW,210,0.0,2.3,71,0.00,CLR,,0.00,WeatherDisplay:10.37,2013-01-02 19:41:00,
2013-01-02 14:46:00,22.4,14.4,30.22,SSW,207,2.2,5.0,71,0.00,CLR,,0.00,WeatherDisplay:10.37,2013-01-02 19:46:00,
2013-01-02 14:51:00,22.5,14.5,30.22,SSW,208,0.0,0.0,71,0.00,CLR,,0.00,WeatherDisplay:10.37,2013-01-02 19:51:00,
2013-01-02 14:56:00,22.5,14.2,30.22,SSW,209,0.0,1.0,70,0.00,CLR,,0.00,WeatherDisplay:10.37,2013-01-02 19:56:00,
2013-01-02 15:01:00,22.6,14.3,30.22,SSW,208,0.0,1.1,70,0.00,CLR,,0.00,WeatherDisplay:10.37,2013-01-02 20:01:00,
2013-01-02 15:06:00,22.6,14.3,30.22,SSW,208,0.3,0.0,70,0.00,CLR,,0.00,WeatherDisplay:10.37,2013-01-02 20:06:00,
2013-01-02 15:11:00,22.7,14.4,30.22,SSW,208,0.0,1.1,70,0.00,CLR,,0.00,WeatherDisplay:10.37,2013-01-02 20:11:00,
2013-01-02 15:16:00,22.6,14.3,30.22,SSW,208,1.1,3.5,70,0.00,CLR,,0.00,WeatherDisplay:10.37,2013-01-02 20:16:00,
2013-01-02 15:21:00,22.4,14.1,30.22,SSW,208,0.6,3.5,70,0.00,CLR,,0.00,WeatherDisplay:10.37,2013-01-02 20:21:00,
2013-01-02 15:26:00,22.4,14.1,30.22,SSW,209,0.0,0.0,70,0.00,CLR,,0.00,WeatherDisplay:10.37,2013-01-02 20:26:00,
2013-01-02 15:31:00,22.5,14.2,30.22,SSW,209,0.3,3.5,70,0.00,CLR,,0.00,WeatherDisplay:10.37,2013-01-02 20:31:00,
2013-01-02 15:36:00,22.4,14.1,30.22,SSW,208,0.0,3.5,70,0.00,CLR,,0.00,WeatherDisplay:10.37,2013-01-02 20:36:00,
2013-01-02 15:41:00,22.5,14.5,30.22,SSW,208,0.0,0.0,71,0.00,CLR,,0.00,WeatherDisplay:10.37,2013-01-02 20:41:00,
2013-01-02 15:46:00,22.7,14.7,30.23,SSW,208,0.0,0.0,71,0.00,CLR,,0.00,WeatherDisplay:10.37,2013-01-02 20:46:00,
2013-01-02 15:51:00,22.7,14.7,30.22,SSW,208,0.0,0.0,71,0.00,CLR,,0.00,WeatherDisplay:10.37,2013-01-02 20:51:00,
2013-01-02 15:56:00,22.8,14.8,30.22,SSW,208,0.0,0.0,71,0.00,CLR,,0.00,WeatherDisplay:10.37,2013-01-02 20:56:00,
2013-01-02 16:01:00,22.8,14.5,30.22,SSW,208,0.0,0.0,70,0.00,CLR,,0.00,WeatherDisplay:10.37,2013-01-02 21:01:00,
2013-01-02 16:06:00,22.9,14.6,30.23,SSW,207,0.0,0.0,70,0.00,CLR,,0.00,WeatherDisplay:10.37,2013-01-02 21:06:00,
2013-01-02 16:11:00,22.9,14.6,30.23,SSW,207,0.0,2.3,70,0.00,CLR,,0.00,WeatherDisplay:10.37,2013-01-02 21:11:00,
2013-01-02 16:16:00,22.8,14.1,30.23,SSW,207,1.0,2.3,69,0.00,CLR,,0.00,WeatherDisplay:10.37,2013-01-02 21:16:00,
2013-01-02 16:21:00,22.6,14.3,30.23,SSW,207,0.1,1.1,70,0.00,CLR,,0.00,WeatherDisplay:10.37,2013-01-02 21:21:00,
2013-01-02 16:26:00,22.5,14.2,30.23,SSW,207,0.5,2.3,70,0.00,CLR,,0.00,WeatherDisplay:10.37,2013-01-02 21:26:00,
2013-01-02 16:31:00,22.4,14.1,30.23,SSW,207,0.0,0.0,70,0.00,CLR,,0.00,WeatherDisplay:10.37,2013-01-02 21:31:00,
2013-01-02 16:36:00,22.4,14.4,30.23,SSW,207,0.0,0.0,71,0.00,CLR,,0.00,WeatherDisplay:10.37,2013-01-02 21:36:00,
2013-01-02 16:41:00,22.3,14.3,30.23,SSW,207,0.0,0.0,71,0.00,CLR,,0.00,WeatherDisplay:10.37,2013-01-02 21:41:00,
2013-01-02 16:46:00,22.3,14.3,30.23,SSW,207,0.0,0.0,71,0.00,CLR,,0.00,WeatherDisplay:10.37,2013-01-02 21:46:00,
2013-01-02 16:51:00,22.3,14.3,30.24,SSW,207,0.0,0.0,71,0.00,CLR,,0.00,WeatherDisplay:10.37,2013-01-02 21:51:00,
2013-01-02 16:56:00,22.2,14.5,30.24,SSW,207,0.0,0.0,72,0.00,CLR,,0.00,WeatherDisplay:10.37,2013-01-02 21:56:00,
2013-01-02 17:01:00,22.1,14.4,30.24,SSW,207,0.0,0.0,72,0.00,CLR,,0.00,WeatherDisplay:10.37,2013-01-02 22:01:00,
2013-01-02 17:06:00,22.0,14.3,30.24,SSW,207,0.0,0.0,72,0.00,CLR,,0.00,WeatherDisplay:10.37,2013-01-02 22:06:00,
2013-01-02 17:11:00,21.7,14.1,30.24,SSW,207,0.6,3.5,72,0.00,CLR,,0.00,WeatherDisplay:10.37,2013-01-02 22:11:00,
2013-01-02 17:16:00,21.5,14.2,30.24,SSW,207,0.0,0.0,73,0.00,CLR,,0.00,WeatherDisplay:10.37,2013-01-02 22:16:00,
2013-01-02 17:21:00,21.2,13.9,30.25,SSW,207,1.1,3.5,73,0.00,CLR,,0.00,WeatherDisplay:10.37,2013-01-02 22:21:00,
2013-01-02 17:26:00,20.9,13.9,30.25,SSW,207,0.0,0.0,74,0.00,CLR,,0.00,WeatherDisplay:10.37,2013-01-02 22:26:00,
2013-01-02 17:31:00,20.7,13.7,30.25,SSW,207,1.4,3.5,74,0.00,CLR,,0.00,WeatherDisplay:10.37,2013-01-02 22:31:00,
2013-01-02 17:36:00,20.4,13.4,30.25,SSW,207,0.3,3.5,74,0.00,CLR,,0.00,WeatherDisplay:10.37,2013-01-02 22:36:00,
2013-01-02 17:41:00,20.2,13.2,30.25,SSW,206,0.5,3.5,74,0.00,CLR,,0.00,WeatherDisplay:10.37,2013-01-02 22:41:00,
2013-01-02 17:46:00,20.1,13.1,30.25,SSW,203,0.0,0.0,74,0.00,CLR,,0.00,WeatherDisplay:10.37,2013-01-02 22:46:00,
2013-01-02 17:51:00,19.8,12.8,30.25,SSW,203,0.1,0.0,74,0.00,CLR,,0.00,WeatherDisplay:10.37,2013-01-02 22:51:00,
2013-01-02 17:56:00,19.7,12.8,30.25,SSW,203,0.0,0.0,74,0.00,CLR,,0.00,WeatherDisplay:10.37,2013-01-02 22:56:00,
2013-01-02 18:01:00,19.5,12.6,30.25,SSW,203,0.2,0.0,74,0.00,CLR,,0.00,WeatherDisplay:10.37,2013-01-02 23:01:00,
2013-01-02 18:06:00,19.3,12.4,30.25,SSW,203,0.8,3.5,74,0.00,CLR,,0.00,WeatherDisplay:10.37,2013-01-02 23:06:00,
2013-01-02 18:11:00,19.1,12.2,30.25,SSW,203,0.0,3.5,74,0.00,CLR,,0.00,WeatherDisplay:10.37,2013-01-02 23:11:00,
2013-01-02 18:16:00,19.0,12.1,30.26,SSW,200,0.0,0.0,74,0.00,CLR,,0.00,WeatherDisplay:10.37,2013-01-02 23:16:00,
2013-01-02 18:21:00,18.9,11.7,30.26,South,188,0.4,5.8,73,0.00,CLR,,0.00,WeatherDisplay:10.37,2013-01-02 23:21:00,
2013-01-02 18:26:00,18.7,11.5,30.26,South,188,0.0,0.0,73,0.00,CLR,,0.00,WeatherDisplay:10.37,2013-01-02 23:26:00,
2013-01-02 18:31:00,18.6,11.4,30.26,South,186,0.3,1.1,73,0.00,CLR,,0.00,WeatherDisplay:10.37,2013-01-02 23:31:00,
2013-01-02 18:36:00,18.4,11.2,30.25,South,186,0.0,0.0,73,0.00,CLR,,0.00,WeatherDisplay:10.37,2013-01-02 23:36:00,
2013-01-02 18:41:00,18.4,11.2,30.25,South,176,3.4,6.9,73,0.00,CLR,,0.00,WeatherDisplay:10.37,2013-01-02 23:41:00,
2013-01-02 18:46:00,18.3,10.8,30.26,South,176,0.5,0.0,72,0.00,CLR,,0.00,WeatherDisplay:10.37,2013-01-02 23:46:00,
2013-01-02 18:51:00,18.1,10.6,30.26,South,175,0.0,0.0,72,0.00,CLR,,0.00,WeatherDisplay:10.37,2013-01-02 23:51:00,
2013-01-02 18:56:00,17.9,10.4,30.25,South,175,0.5,3.5,72,0.00,CLR,,0.00,WeatherDisplay:10.37,2013-01-02 23:56:00,
2013-01-02 19:01:00,17.8,10.0,30.25,South,176,0.6,3.5,71,0.00,CLR,,0.00,WeatherDisplay:10.37,2013-01-03 00:01:00,
2013-01-02 19:06:00,17.7,9.6,30.25,South,175,0.0,0.0,70,0.00,CLR,,0.00,WeatherDisplay:10.37,2013-01-03 00:06:00,
2013-01-02 19:11:00,17.5,9.4,30.25,South,175,1.9,5.8,70,0.00,CLR,,0.00,WeatherDisplay:10.37,2013-01-03 00:11:00,
2013-01-02 19:16:00,17.5,9.1,30.25,South,175,0.6,2.3,69,0.00,CLR,,0.00,WeatherDisplay:10.37,2013-01-03 00:16:00,
2013-01-02 19:21:00,17.4,9.0,30.25,South,174,1.2,3.5,69,0.00,CLR,,0.00,WeatherDisplay:10.37,2013-01-03 00:21:00,
2013-01-02 19:26:00,17.4,9.0,30.24,South,173,0.3,3.0,69,0.00,CLR,,0.00,WeatherDisplay:10.37,2013-01-03 00:26:00,
2013-01-02 19:31:00,17.4,9.0,30.24,South,172,2.1,3.5,69,0.00,CLR,,0.00,WeatherDisplay:10.37,2013-01-03 00:31:00,
2013-01-02 19:36:00,17.3,8.9,30.24,South,171,3.0,3.5,69,0.00,CLR,,0.00,WeatherDisplay:10.37,2013-01-03 00:36:00,
2013-01-02 19:41:00,17.1,8.7,30.24,South,171,0.4,3.5,69,0.00,CLR,,0.00,WeatherDisplay:10.37,2013-01-03 00:41:00,
2013-01-02 19:46:00,17.0,8.9,30.24,South,169,1.7,4.6,70,0.00,CLR,,0.00,WeatherDisplay:10.37,2013-01-03 00:46:00,
2013-01-02 19:51:00,16.8,8.7,30.24,South,169,2.2,3.5,70,0.00,CLR,,0.00,WeatherDisplay:10.37,2013-01-03 00:51:00,
2013-01-02 19:56:00,16.7,8.6,30.24,South,169,1.0,3.5,70,0.00,CLR,,0.00,WeatherDisplay:10.37,2013-01-03 00:56:00,
2013-01-02 20:01:00,16.5,8.7,30.24,South,169,1.6,1.6,71,0.00,CLR,,0.00,WeatherDisplay:10.37,2013-01-03 01:01:00,
2013-01-02 20:06:00,16.3,8.9,30.24,South,169,1.0,3.5,72,0.00,CLR,,0.00,WeatherDisplay:10.37,2013-01-03 01:06:00,
2013-01-02 20:11:00,16.2,8.8,30.24,SSE,168,1.0,4.6,72,0.00,CLR,,0.00,WeatherDisplay:10.37,2013-01-03 01:11:00,
2013-01-02 20:16:00,16.1,8.7,30.24,SSE,168,0.0,2.3,72,0.00,CLR,,0.00,WeatherDisplay:10.37,2013-01-03 01:16:00,
2013-01-02 20:21:00,15.9,8.5,30.24,SSE,168,0.5,2.3,72,0.00,CLR,,0.00,WeatherDisplay:10.37,2013-01-03 01:21:00,
2013-01-02 20:26:00,15.7,8.3,30.24,SSE,167,1.0,2.3,72,0.00,CLR,,0.00,WeatherDisplay:10.37,2013-01-03 01:26:00,
2013-01-02 20:31:00,15.5,8.4,30.24,SSE,167,1.7,3.5,73,0.00,CLR,,0.00,WeatherDisplay:10.37,2013-01-03 01:31:00,
2013-01-02 20:36:00,15.5,8.4,30.23,SSE,165,2.2,3.5,73,0.00,CLR,,0.00,WeatherDisplay:10.37,2013-01-03 01:36:00,
2013-01-02 20:41:00,15.4,8.3,30.23,SSE,165,0.4,0.0,73,0.00,CLR,,0.00,WeatherDisplay:10.37,2013-01-03 01:41:00,
2013-01-02 20:46:00,15.3,7.9,30.23,SSE,165,1.0,2.3,72,0.00,CLR,,0.00,WeatherDisplay:10.37,2013-01-03 01:46:00,
2013-01-02 20:51:00,15.3,7.9,30.23,SSE,165,0.0,0.0,72,0.00,CLR,,0.00,WeatherDisplay:10.37,2013-01-03 01:51:00,
2013-01-02 20:56:00,15.2,7.8,30.24,SSE,165,0.0,2.0,72,0.00,CLR,,0.00,WeatherDisplay:10.37,2013-01-03 01:56:00,
2013-01-02 21:01:00,15.2,7.8,30.23,SSE,165,0.1,1.0,72,0.00,CLR,,0.00,WeatherDisplay:10.37,2013-01-03 02:01:00,
2013-01-02 21:06:00,15.0,7.6,30.23,SSE,165,0.1,0.0,72,0.00,CLR,,0.00,WeatherDisplay:10.37,2013-01-03 02:06:00,
2013-01-02 21:11:00,14.9,7.5,30.23,SSE,165,0.0,0.0,72,0.00,CLR,,0.00,WeatherDisplay:10.37,2013-01-03 02:11:00,
2013-01-02 21:16:00,14.9,7.5,30.23,SSE,165,0.0,0.0,72,0.00,CLR,,0.00,WeatherDisplay:10.37,2013-01-03 02:16:00,
2013-01-02 21:21:00,14.9,7.5,30.23,SSE,167,2.5,4.6,72,0.00,CLR,,0.00,WeatherDisplay:10.37,2013-01-03 02:21:00,
2013-01-02 21:26:00,14.9,7.5,30.23,SSE,167,0.5,0.0,72,0.00,CLR,,0.00,WeatherDisplay:10.37,2013-01-03 02:26:00,
2013-01-02 21:31:00,15.0,7.3,30.23,South,169,2.3,3.0,71,0.00,CLR,,0.00,WeatherDisplay:10.37,2013-01-03 02:31:00,
2013-01-02 21:36:00,15.0,7.3,30.23,South,170,1.2,6.0,71,0.00,CLR,,0.00,WeatherDisplay:10.37,2013-01-03 02:36:00,
2013-01-02 21:41:00,15.0,7.3,30.23,South,173,0.8,2.3,71,0.00,CLR,,0.00,WeatherDisplay:10.37,2013-01-03 02:41:00,
2013-01-02 21:46:00,15.0,7.3,30.23,South,173,0.2,3.0,71,0.00,CLR,,0.00,WeatherDisplay:10.37,2013-01-03 02:46:00,
2013-01-02 21:51:00,15.0,7.3,30.23,South,173,0.4,3.5,71,0.00,CLR,,0.00,WeatherDisplay:10.37,2013-01-03 02:51:00,
2013-01-02 21:56:00,15.0,7.3,30.22,South,170,3.0,4.6,71,0.00,CLR,,0.00,WeatherDisplay:10.37,2013-01-03 02:56:00,
2013-01-02 22:01:00,15.0,7.3,30.22,South,169,0.4,4.0,71,0.00,CLR,,0.00,WeatherDisplay:10.37,2013-01-03 03:01:00,
2013-01-02 22:06:00,15.0,7.0,30.22,South,169,0.2,0.0,70,0.00,CLR,,0.00,WeatherDisplay:10.37,2013-01-03 03:06:00,
2013-01-02 22:11:00,15.0,7.0,30.23,South,172,1.2,3.5,70,0.00,CLR,,0.00,WeatherDisplay:10.37,2013-01-03 03:11:00,
2013-01-02 22:16:00,15.0,7.0,30.23,South,173,0.8,3.5,70,0.00,CLR,,0.00,WeatherDisplay:10.37,2013-01-03 03:16:00,
2013-01-02 22:21:00,15.1,7.1,30.23,South,173,1.8,4.6,70,0.00,CLR,,0.00,WeatherDisplay:10.37,2013-01-03 03:21:00,
2013-01-02 22:26:00,15.2,7.2,30.22,South,177,2.5,4.6,70,0.00,CLR,,0.00,WeatherDisplay:10.37,2013-01-03 03:26:00,
2013-01-02 22:31:00,15.3,7.3,30.22,South,175,1.4,3.5,70,0.00,CLR,,0.00,WeatherDisplay:10.37,2013-01-03 03:31:00,
2013-01-02 22:37:00,15.3,7.3,30.22,South,176,1.8,4.0,70,0.00,CLR,,0.00,WeatherDisplay:10.37,2013-01-03 03:37:00,
2013-01-02 22:45:00,15.3,7.3,30.23,South,172,0.4,3.5,70,0.00,CLR,,0.00,WeatherDisplay:10.37,2013-01-03 03:45:00,
2013-01-02 22:50:00,15.3,7.3,30.22,South,178,3.6,4.6,70,0.00,CLR,,0.00,WeatherDisplay:10.37,2013-01-03 03:50:00,
2013-01-02 22:55:00,15.4,7.4,30.22,South,171,0.4,4.6,70,0.00,CLR,,0.00,WeatherDisplay:10.37,2013-01-03 03:55:00,
2013-01-02 23:00:00,15.5,7.5,30.22,South,182,1.5,6.9,70,0.00,CLR,,0.00,WeatherDisplay:10.37,2013-01-03 04:00:00,
2013-01-02 23:05:00,15.6,7.6,30.22,South,180,3.2,3.5,70,0.00,CLR,,0.00,WeatherDisplay:10.37,2013-01-03 04:05:00,
2013-01-02 23:10:00,15.5,7.5,30.22,South,180,0.6,3.0,70,0.00,CLR,,0.00,WeatherDisplay:10.37,2013-01-03 04:10:00,
2013-01-02 23:15:00,15.5,7.5,30.22,South,179,1.2,3.0,70,0.00,CLR,,0.00,WeatherDisplay:10.37,2013-01-03 04:15:00,
2013-01-02 23:20:00,15.5,7.5,30.22,South,181,0.0,3.5,70,0.00,CLR,,0.00,WeatherDisplay:10.37,2013-01-03 04:20:00,
2013-01-02 23:25:00,15.6,7.6,30.22,South,181,0.6,2.3,70,0.00,CLR,,0.00,WeatherDisplay:10.37,2013-01-03 04:25:00,
2013-01-02 23:30:00,15.7,7.6,30.22,South,182,0.4,3.0,70,0.00,CLR,,0.00,WeatherDisplay:10.37,2013-01-03 04:30:00,
2013-01-02 23:35:00,15.8,7.4,30.22,South,175,0.1,5.8,69,0.00,CLR,,0.00,WeatherDisplay:10.37,2013-01-03 04:35:00,
2013-01-02 23:40:00,15.9,7.5,30.22,South,178,0.7,4.0,69,0.00,CLR,,0.00,WeatherDisplay:10.37,2013-01-03 04:40:00,
2013-01-02 23:45:00,15.9,7.5,30.22,South,176,0.7,3.5,69,0.00,CLR,,0.00,WeatherDisplay:10.37,2013-01-03 04:45:00,
2013-01-02 23:50:00,15.8,7.4,30.22,South,174,0.4,3.5,69,0.00,CLR,,0.00,WeatherDisplay:10.37,2013-01-03 04:50:00,
2013-01-02 23:55:00,15.8,7.4,30.22,South,174,1.4,3.5,69,0.00,CLR,,0.00,WeatherDisplay:10.37,2013-01-03 04:55:00,